Theta_e
358 362 359 360 359 358 358 359 360 360 359 358 358 356 357 359 359 360 361 362 364 361 362 362 364 364 358 356 355 357 359 360 357 358 358 359 359 360 362 361 361 360 360 360 360 360 359 359 358 358 358 357 357 357 357 357 358 357 356 356 356 355 355 355 355 356 356 355 354 354 354 354 354 354 355 354 355 355 354 355 354 354 354 355 355
357 362 358 356 355 353 354 355 358 361 357 355 359 359 357 356 359 359 358 361 361 360 361 358 357 361 360 357 356 357 358 360 358 358 358 359 359 360 363 362 361 361 360 360 360 361 360 360 359 358 358 357 357 357 356 356 356 356 356 356 355 355 355 354 354 354 355 355 354 355 355 355 354 355 355 355 355 355 354 354 354 354 355 354 355
359 358 356 355 354 354 353 354 356 357 356 357 357 357 359 359 361 361 360 361 360 362 360 361 360 357 358 355 353 356 357 359 357 356 356 358 359 360 361 363 362 362 361 361 361 360 360 360 360 358 358 357 357 356 357 356 356 356 355 355 355 355 355 354 354 353 354 354 354 354 355 355 354 355 354 354 355 355 355 354 355 355 355 355 354
359 356 358 357 355 354 356 352 352 355 357 358 359 356 356 357 359 361 361 361 359 360 361 359 359 354 360 353 356 351 353 355 355 354 356 358 359 360 361 361 363 362 362 362 361 360 360 360 360 359 358 358 357 357 357 356 356 356 356 356 355 355 356 355 354 354 354 354 354 354 354 355 354 354 355 355 355 355 355 355 354 355 355 355 354
369 367 364 359 359 356 353 353 355 357 356 355 356 357 359 358 357 362 360 358 356 356 359 357 357 358 362 352 356 355 355 353 355 356 355 358 360 360 360 361 361 362 362 362 362 361 361 360 360 360 359 359 357 357 357 356 356 356 356 355 355 356 356 355 355 355 355 355 354 355 355 355 355 355 355 355 355 354 355 355 354 354 354 353 353
366 367 367 366 364 367 363 359 354 353 357 355 356 356 355 355 357 360 358 356 354 356 358 357 357 359 357 353 357 360 360 353 353 352 357 358 359 360 360 360 361 361 360 362 362 361 361 361 361 361 360 360 360 359 358 357 356 356 357 356 356 357 357 356 356 356 356 356 356 356 356 356 356 356 355 355 355 355 355 354 354 353 353 352 353
366 369 366 365 362 363 364 365 360 359 356 355 357 355 359 359 364 358 354 356 356 359 356 357 354 360 366 358 353 355 355 352 353 354 357 358 360 359 360 360 360 360 360 360 362 361 361 362 361 361 361 360 360 360 360 359 358 358 358 357 358 358 358 358 357 357 357 357 357 356 356 356 356 355 356 355 355 355 355 354 353 352 352 352 352
367 368 362 362 366 363 363 370 369 370 369 367 365 364 366 362 363 360 359 352 358 354 359 358 356 352 355 358 359 361 364 359 359 351 353 357 357 359 361 361 360 360 362 359 360 361 363 363 362 362 361 362 361 361 361 360 359 359 358 359 358 358 358 358 358 358 358 357 357 357 356 356 356 355 355 355 355 355 354 353 352 352 351 352 352
370 370 374 366 364 365 367 366 371 370 373 369 366 364 363 360 367 367 362 359 349 350 352 357 357 351 356 353 356 364 359 361 361 360 357 361 355 357 359 361 363 365 362 361 360 361 362 363 363 362 362 362 362 361 361 360 360 359 359 359 359 358 358 358 358 358 357 357 357 357 357 357 356 356 356 356 355 354 353 352 351 351 351 350 349
373 372 372 364 367 365 364 368 368 371 369 368 367 366 366 363 362 366 365 366 354 350 348 349 350 350 351 349 356 355 356 357 361 370 364 360 360 357 357 358 362 361 361 360 360 363 359 362 363 363 363 363 362 362 362 361 360 360 359 360 360 359 358 358 359 358 358 358 358 357 357 356 356 356 356 355 355 354 352 352 350 351 350 346 343
375 373 366 364 364 367 368 369 370 371 368 365 364 364 363 364 360 363 365 362 364 357 355 353 351 352 346 350 361 362 362 361 366 360 364 355 354 357 356 357 354 358 360 361 362 362 359 360 362 361 361 363 363 363 362 362 361 361 361 360 359 359 359 359 358 358 359 358 358 357 357 357 356 356 356 355 354 353 352 351 350 351 349 342 343
373 371 368 371 368 369 368 367 370 372 367 365 364 365 365 364 361 360 363 365 365 360 358 358 358 353 357 351 360 362 359 361 361 355 356 357 355 368 361 357 360 359 356 357 359 360 362 361 362 360 359 362 364 364 363 363 363 362 362 361 360 359 359 359 359 358 358 358 358 357 357 356 357 355 356 354 354 353 351 350 351 350 348 342 343
374 375 373 370 367 368 366 367 370 372 373 364 367 365 366 366 368 369 363 360 358 357 353 360 362 356 366 354 356 360 357 357 352 353 355 358 355 356 360 356 357 362 359 363 359 357 361 362 362 361 361 361 362 364 364 363 363 363 363 362 361 360 359 359 358 358 358 358 358 357 357 356 356 356 354 354 353 352 350 350 350 349 347 344 342
375 373 375 369 364 366 365 366 367 369 371 369 367 366 368 366 366 367 366 361 357 351 350 355 354 349 347 349 355 360 366 354 350 350 351 352 354 357 360 352 352 354 358 362 365 360 355 358 362 358 362 362 360 361 362 361 362 363 362 362 362 361 359 359 359 358 358 358 358 358 357 357 357 355 355 353 353 352 351 350 350 349 349 342 343
373 373 371 371 368 367 364 365 364 367 370 369 368 369 369 365 363 364 363 366 364 359 361 359 352 348 356 353 346 345 357 359 351 351 349 348 350 348 351 348 349 356 358 358 358 358 356 356 358 362 361 363 362 362 360 361 361 364 362 362 361 361 360 359 359 358 358 358 358 358 358 358 356 356 354 352 352 352 351 350 350 349 349 345 344
368 368 370 370 368 366 365 364 365 366 369 369 368 367 368 367 364 367 364 356 350 349 354 355 361 355 345 349 344 342 340 344 353 358 349 347 348 346 348 348 350 356 361 357 353 357 362 366 358 365 363 364 366 363 361 361 363 365 365 362 361 360 360 360 359 358 358 358 358 357 357 358 357 356 354 352 352 352 351 351 350 350 349 347 345
369 370 369 371 368 367 366 365 365 365 367 368 369 367 366 363 365 365 362 360 348 354 353 350 358 362 357 354 344 341 341 344 342 358 350 346 345 345 351 348 349 360 360 355 359 357 355 355 361 360 365 367 362 364 363 364 364 366 362 364 362 360 360 359 359 359 359 358 357 357 358 358 357 355 355 353 352 352 352 351 350 350 350 348 345
372 371 370 370 369 368 368 365 365 366 367 366 367 366 366 364 367 365 362 367 363 351 347 357 353 364 361 361 360 345 346 349 348 344 358 347 355 348 350 349 352 355 363 358 353 354 361 356 357 360 360 359 361 360 363 363 365 363 363 361 362 361 359 358 358 359 359 359 359 357 357 359 358 357 354 353 351 351 351 351 351 351 351 350 348
365 369 369 371 373 372 370 367 367 368 368 368 366 363 363 362 363 362 362 372 370 360 356 349 365 361 352 349 352 353 351 350 345 349 345 351 351 350 349 347 350 352 354 352 352 357 353 356 353 354 358 361 362 363 368 363 363 366 366 364 363 361 360 360 360 359 359 359 359 359 357 360 359 356 354 352 353 352 351 352 351 351 351 351 348
369 372 371 371 372 373 373 369 367 367 370 368 366 364 364 366 364 366 371 378 371 371 359 350 355 358 356 358 353 357 359 353 351 350 354 346 351 351 346 346 345 347 350 347 351 351 351 358 356 353 357 360 362 362 361 362 362 360 365 364 364 363 362 361 361 360 359 359 359 359 358 360 359 357 355 354 354 355 353 352 352 352 352 352 350
371 368 371 371 371 373 373 373 369 369 372 367 364 362 364 368 369 373 370 369 369 370 370 365 357 349 357 359 360 366 356 351 353 360 351 351 348 348 347 350 348 344 340 343 346 349 351 355 350 354 359 359 360 361 361 363 364 363 363 363 366 364 362 361 360 361 359 359 359 358 358 358 359 358 357 356 356 356 356 354 352 353 353 352 351
367 371 372 372 371 372 370 368 368 361 364 362 364 364 367 372 370 372 368 370 377 373 369 368 366 361 359 359 363 360 364 362 353 351 352 358 352 347 348 347 347 357 359 353 347 351 349 351 353 352 357 358 359 360 359 361 365 364 363 361 363 363 362 360 359 360 359 359 359 358 358 358 358 358 357 357 357 357 356 355 353 352 354 353 352
362 367 369 368 371 371 365 366 366 369 371 370 368 361 362 366 367 372 371 368 370 371 369 369 364 369 358 364 361 355 354 357 355 354 352 352 355 343 338 345 338 342 358 346 360 351 354 353 350 347 352 355 357 360 360 360 363 361 365 360 360 360 361 361 359 359 356 357 359 359 358 358 358 358 358 358 358 357 356 355 354 352 353 354 353
368 365 363 362 369 371 371 369 370 371 370 371 371 367 364 364 370 371 371 373 374 378 367 368 359 363 358 352 352 355 357 353 345 357 368 351 352 345 348 350 349 348 352 354 354 348 356 352 348 355 352 363 369 368 365 365 364 362 364 361 358 359 359 361 361 357 356 355 354 357 359 358 358 358 358 358 358 358 357 357 356 355 352 352 352
366 363 363 364 369 371 369 373 373 368 374 373 372 367 379 374 369 367 369 370 373 371 369 367 360 359 354 351 351 352 351 356 359 348 352 346 351 350 344 345 353 352 352 350 353 354 357 352 359 355 360 368 369 381 373 366 362 362 362 361 357 358 358 359 359 357 355 354 354 357 358 358 357 356 356 357 357 357 357 358 358 357 355 352 351
360 363 362 362 366 369 372 370 374 374 375 375 376 372 375 377 375 368 364 369 371 371 371 365 369 373 368 360 356 356 352 346 344 347 344 346 352 354 351 355 345 350 363 355 359 352 351 351 349 354 358 362 360 366 362 359 356 365 361 361 357 355 356 356 357 355 354 354 352 354 357 357 357 357 357 357 357 357 356 357 358 358 358 356 353
360 364 366 368 366 369 370 369 371 374 373 374 371 375 374 372 378 378 372 372 370 372 370 364 361 363 365 369 365 354 353 347 358 350 352 350 349 352 352 346 344 347 352 366 360 347 345 362 354 348 360 359 370 372 369 363 359 365 361 359 364 354 354 353 354 353 353 352 352 352 353 354 354 357 358 358 357 358 356 356 357 357 357 357 356
363 365 363 367 366 367 369 368 371 370 373 373 372 370 373 373 372 374 370 366 370 369 372 369 362 368 362 371 368 360 366 358 356 358 356 357 361 362 367 358 353 345 349 349 351 355 352 357 353 356 358 364 366 366 363 359 356 365 363 359 360 360 353 352 351 350 350 349 350 350 351 352 352 353 355 357 357 356 357 354 353 354 354 355 355
363 362 363 365 370 366 366 366 371 371 371 372 371 372 373 371 369 371 369 366 371 370 370 369 370 359 361 362 370 368 366 373 366 360 374 364 362 365 366 364 363 351 346 346 349 349 352 347 348 361 367 362 366 356 359 359 357 362 362 362 361 362 356 348 349 347 347 347 347 347 349 350 350 350 351 353 353 354 355 354 351 351 351 352 353
360 357 361 363 367 369 368 368 368 368 368 368 370 370 372 370 370 371 370 373 373 371 371 370 368 370 366 365 362 365 368 368 365 357 373 366 369 369 369 367 365 353 353 347 347 353 351 352 348 363 359 370 364 362 361 359 358 359 360 362 360 359 351 348 348 347 346 346 345 344 346 347 347 347 347 346 347 349 351 352 352 351 350 349 350
361 365 362 363 364 366 368 367 368 368 369 368 370 370 370 369 368 368 370 372 372 371 372 370 367 367 371 367 375 370 369 364 371 362 371 366 370 373 373 370 363 359 356 353 346 357 361 354 356 354 361 365 360 357 358 362 360 357 357 359 361 356 351 352 347 346 345 344 342 342 341 341 341 341 342 343 344 345 346 348 349 349 350 349 349
358 365 363 362 363 362 363 362 362 363 366 366 368 369 370 369 366 363 365 369 367 369 366 367 364 368 368 369 371 371 377 377 372 369 372 375 368 368 366 366 367 367 364 358 351 350 362 356 356 358 357 356 365 365 366 369 367 357 361 364 363 357 358 359 354 347 343 342 341 341 339 337 337 338 340 342 343 345 346 346 345 346 346 346 348
358 357 362 362 364 364 361 363 362 362 365 365 365 367 368 369 369 368 368 366 366 367 369 368 364 367 369 367 370 371 373 371 372 368 365 366 369 368 369 370 368 367 363 359 354 354 360 364 363 360 360 361 357 363 361 362 364 366 362 365 365 361 360 360 361 353 346 341 339 339 338 337 337 338 339 341 342 344 346 346 345 343 342 342 342
360 356 360 361 364 364 363 363 363 363 366 367 364 366 366 367 367 364 365 369 366 366 368 367 367 365 369 368 368 369 373 367 366 363 363 359 360 360 365 363 363 364 366 361 359 356 354 361 362 364 364 366 359 365 362 365 366 370 369 369 368 367 366 366 365 365 353 346 340 337 336 336 336 337 337 339 340 341 342 342 341 339 339 339 337
361 358 359 359 363 365 364 365 365 364 366 366 364 364 365 366 366 363 362 364 365 364 364 366 365 365 365 367 364 366 365 365 365 363 360 361 361 363 364 363 361 361 365 365 361 356 355 356 363 358 358 364 364 364 366 365 365 366 365 365 365 367 370 368 366 365 354 348 342 337 336 336 336 336 336 338 339 338 338 337 335 335 335 334 332
358 361 361 360 364 366 365 365 365 363 366 364 363 363 365 366 365 365 364 364 363 363 364 364 364 365 363 363 362 361 363 364 365 364 364 363 363 364 362 362 367 369 372 372 368 361 359 356 360 360 362 360 362 365 367 366 364 364 366 366 368 367 367 368 367 365 359 350 347 342 338 337 335 334 333 334 334 333 332 331 330 331 331 330 330
358 359 362 363 365 366 363 364 365 362 364 363 363 361 363 364 365 364 364 365 364 364 364 365 367 364 364 362 362 361 363 363 363 362 362 364 363 362 363 364 363 363 362 362 362 364 360 357 358 362 364 364 365 365 365 361 364 367 369 369 368 367 368 366 365 364 353 347 346 345 343 339 337 335 334 333 333 332 331 330 330 330 329 329 328
358 358 360 362 363 365 363 363 365 364 363 363 363 362 361 362 364 364 365 364 363 364 364 364 364 364 363 363 362 363 361 359 359 361 363 363 364 363 363 365 366 366 366 366 367 367 364 362 360 359 362 360 360 363 368 368 363 361 363 367 367 365 365 365 364 364 365 365 366 366 353 342 339 335 335 336 334 332 332 331 330 330 328 327 324
356 356 358 361 363 365 364 364 364 366 365 364 365 365 363 361 362 363 362 363 363 362 362 362 362 363 363 363 364 364 362 362 361 361 364 365 363 362 365 366 365 366 365 365 367 366 364 361 361 361 360 362 362 359 368 372 369 364 358 358 359 364 366 367 368 370 369 368 363 355 356 355 351 351 342 335 333 331 332 332 331 329 328 326 323
356 356 357 359 362 364 365 364 365 367 367 366 367 367 366 364 362 362 362 362 361 362 361 362 362 361 363 363 361 363 363 364 363 363 363 364 365 362 364 366 367 366 364 365 365 364 363 361 360 359 362 362 362 363 362 361 361 363 365 362 358 358 360 367 370 370 372 372 371 371 360 356 354 350 339 337 339 338 335 334 336 336 334 330 326
358 356 358 360 361 363 365 365 365 366 367 367 367 367 367 366 363 361 361 361 361 361 361 360 362 362 362 361 361 360 364 370 366 364 364 366 364 364 366 367 368 366 366 365 364 364 362 361 359 361 359 358 358 359 359 359 358 357 366 364 358 361 366 366 368 372 371 370 371 368 366 367 365 364 364 364 365 358 356 348 347 347 342 333 329
361 360 358 362 361 361 364 366 366 365 366 367 362 352 356 365 363 359 362 363 361 361 362 361 360 362 360 359 356 367 361 360 357 355 353 357 362 366 369 370 367 366 366 365 364 363 362 359 358 357 355 354 356 358 359 360 362 363 361 365 362 364 364 363 365 370 377 375 368 365 367 369 366 364 365 364 364 363 361 360 358 354 345 336 332
362 363 360 360 360 361 361 363 364 364 365 365 351 341 343 350 362 362 361 364 364 363 361 362 361 359 359 360 359 363 369 366 358 350 349 348 350 352 354 361 372 376 367 364 363 363 361 360 360 359 356 355 356 358 360 359 360 363 366 365 364 362 360 358 356 363 385 369 365 362 361 366 365 361 362 362 362 361 361 360 348 342 335 332 330
363 363 361 360 360 361 361 362 363 364 365 356 339 337 340 341 352 363 361 362 363 363 362 360 361 361 359 357 358 357 357 363 367 362 353 348 345 347 346 347 348 349 354 363 364 364 364 360 359 358 358 356 358 359 357 356 363 364 365 364 362 361 360 359 358 357 368 370 362 358 358 363 364 361 358 359 360 361 362 347 338 336 332 329 328
365 364 362 360 360 361 361 362 361 364 366 347 334 335 337 337 339 356 361 359 358 360 361 361 360 361 361 360 358 358 354 364 365 367 366 360 345 340 343 344 345 343 337 335 339 354 357 356 356 357 358 360 359 362 366 366 367 361 362 361 362 364 362 359 359 360 363 366 361 358 356 361 361 356 355 358 359 359 358 347 336 334 331 327 327
364 364 363 361 361 362 362 364 363 363 364 344 331 331 333 334 335 344 364 361 359 358 361 363 361 362 363 362 360 359 359 363 364 363 370 368 365 359 355 356 357 357 345 335 333 331 339 349 350 349 354 360 359 362 366 367 363 360 361 360 363 362 361 360 362 361 363 366 361 358 355 358 360 355 350 353 356 354 354 340 332 331 328 329 330
364 364 363 361 362 362 361 364 365 361 362 336 328 328 329 329 332 339 364 363 360 359 360 363 365 364 364 364 364 361 360 360 363 367 365 369 371 369 364 360 360 361 361 360 356 353 351 348 349 351 353 356 358 361 364 366 365 364 364 364 365 363 363 363 361 362 362 365 365 363 349 347 352 351 350 348 347 345 345 335 332 329 329 329 329
362 366 367 363 362 362 362 361 360 362 360 329 327 326 327 327 330 350 361 363 361 360 361 362 364 367 367 366 365 363 362 364 360 350 359 367 367 368 369 368 365 364 363 361 349 350 358 357 355 355 355 355 348 359 362 366 368 374 373 368 367 362 358 356 354 359 358 361 356 349 346 347 353 344 343 344 343 340 342 346 338 332 329 328 327
360 363 364 362 364 362 361 361 360 361 362 333 324 324 325 325 331 355 361 361 360 359 360 366 369 368 368 368 368 366 365 365 357 338 338 357 365 365 365 365 366 365 366 369 347 337 338 336 335 337 338 338 336 334 336 333 347 356 364 358 355 358 355 353 354 353 353 354 355 350 346 341 345 341 338 342 342 339 343 345 346 333 328 327 329
358 361 363 364 365 363 360 360 360 361 362 343 319 321 322 322 338 358 360 361 360 359 359 361 365 370 370 371 373 369 368 368 349 336 333 349 361 362 362 361 362 362 363 365 362 357 332 330 331 331 331 332 334 334 335 330 328 342 356 352 356 359 356 355 350 350 352 353 356 346 344 342 342 342 338 340 341 348 345 343 342 341 335 331 328
360 363 365 365 364 365 362 361 360 361 360 348 315 321 319 319 337 360 362 361 360 359 360 359 362 364 366 368 370 363 365 361 343 334 330 347 362 363 362 360 357 357 358 360 360 360 366 356 355 356 354 348 349 351 354 341 335 345 353 358 360 359 356 355 354 352 347 349 352 351 342 341 339 342 340 336 333 338 344 342 341 341 341 342 341
Wind_Speed
8 2 6 4 4 3 1 3 1 2 3 1 2 3 2 1 1 1 1 2 1 1 1 1 1 2 2 7 5 4 2 3 4 5 5 5 5 7 11 11 11 11 11 11 11 10 10 10 9 9 8 7 7 7 7 6 6 6 6 5 4 4 3 3 3 3 3 2 2 3 3 4 4 5 5 6 6 6 7 7 8 8 8 8 8
8 5 6 4 3 4 2 1 1 1 1 1 2 1 4 3 3 3 2 1 1 1 0 1 3 1 2 3 7 4 3 3 4 5 5 5 5 6 11 10 10 10 10 10 10 10 10 10 9 9 8 8 7 6 6 5 5 5 4 4 3 3 3 2 2 2 2 2 2 3 3 3 4 5 5 6 6 7 7 7 7 8 8 8 8
4 4 5 4 3 4 4 3 1 1 1 2 2 3 2 2 1 1 2 2 1 0 1 1 1 2 0 1 5 6 4 4 5 7 7 6 5 6 8 11 10 10 10 10 10 9 10 10 9 9 9 8 8 7 7 6 5 4 3 3 3 2 2 2 1 1 0 0 1 2 3 4 4 4 5 5 6 6 7 7 7 7 7 8 7
10 8 7 4 3 3 3 2 1 2 1 2 2 1 0 2 2 2 1 1 1 0 2 1 2 3 2 3 2 7 7 4 6 7 6 6 6 6 6 7 11 10 10 9 9 9 9 9 9 8 8 8 8 7 7 7 6 5 4 4 3 2 3 2 2 1 2 2 3 3 3 4 4 5 5 5 5 5 6 6 6 6 7 7 6
5 4 8 9 9 11 8 4 2 3 4 2 2 2 2 1 1 1 2 1 1 2 2 2 2 2 2 3 2 3 4 6 3 4 7 8 7 6 6 6 6 10 11 10 10 10 10 9 9 8 7 7 6 6 6 6 5 5 5 4 4 3 3 3 3 3 3 3 3 3 3 4 4 5 5 6 5 5 5 5 5 5 6 5 5
3 3 3 3 3 4 8 10 9 9 5 2 2 1 1 2 3 3 4 3 3 2 3 2 2 2 2 2 2 2 2 5 7 7 6 8 7 7 6 5 5 5 6 10 10 10 10 9 9 8 8 7 7 7 7 5 5 5 5 4 3 3 3 4 4 4 4 4 4 4 4 4 5 5 5 5 5 5 4 4 4 4 4 4 4
3 3 3 2 3 3 3 6 10 10 11 9 7 6 6 6 3 4 2 1 1 3 2 2 2 2 0 3 4 3 4 3 3 6 5 6 6 7 6 7 6 6 5 5 8 10 10 9 9 9 9 8 8 8 8 7 7 6 6 5 5 5 6 5 5 4 4 4 5 4 4 4 4 5 5 5 5 4 4 4 4 3 3 3 3
7 5 4 2 2 3 3 2 4 4 2 4 3 4 3 3 3 4 4 4 3 3 2 3 3 4 4 3 3 2 1 3 2 5 8 7 7 6 6 6 6 6 7 5 5 7 11 10 10 10 10 9 9 9 8 8 7 7 7 6 6 6 6 6 5 5 5 5 5 5 5 4 5 5 5 5 4 4 4 4 3 2 2 3 4
6 5 3 4 3 3 2 3 2 2 2 2 3 4 3 4 3 2 3 4 4 5 3 3 3 5 2 1 1 1 2 3 2 2 4 4 6 9 8 6 6 8 6 6 6 6 10 11 11 11 10 10 9 9 9 8 9 8 7 7 7 6 6 6 6 6 6 6 6 6 5 5 5 4 5 5 4 3 3 3 3 2 2 2 3
5 6 5 3 3 2 3 3 3 2 2 2 2 2 3 3 2 2 2 3 7 5 6 6 2 5 5 4 4 4 4 4 2 2 3 2 3 4 6 8 7 7 6 5 7 6 6 9 12 11 11 11 10 9 9 8 8 8 7 7 7 6 6 6 7 7 7 7 6 6 6 5 4 4 4 4 4 3 2 3 3 1 0 1 1
4 6 5 4 3 2 2 3 2 3 3 2 2 4 4 2 3 1 4 3 2 2 3 4 4 3 6 6 2 3 3 2 3 3 1 3 4 5 5 5 6 7 6 5 5 6 6 6 6 5 6 12 11 10 10 9 8 8 7 7 6 6 6 6 6 7 7 7 7 6 6 5 4 4 3 2 3 3 3 3 2 3 2 1 1
4 7 6 4 3 3 3 3 2 2 2 2 3 3 4 5 3 1 3 0 1 2 2 3 1 3 2 4 2 2 2 4 3 6 6 5 3 1 2 4 3 4 5 6 6 6 7 6 6 6 6 10 13 12 12 10 10 9 9 8 8 7 7 6 6 6 6 6 6 6 6 5 5 4 5 4 3 4 4 4 4 3 2 3 3
4 4 6 6 4 3 3 2 2 1 1 2 3 4 3 3 3 1 1 3 2 2 3 2 3 3 1 2 3 2 3 1 3 4 3 2 3 6 3 4 3 2 3 3 5 7 8 7 7 7 6 6 8 12 12 11 11 10 10 10 9 8 8 7 7 6 6 6 6 6 6 6 5 5 5 5 5 5 5 5 5 5 3 4 5
4 5 4 6 4 4 4 3 2 1 1 2 3 2 3 2 2 0 2 1 1 2 3 2 2 2 2 2 2 1 1 2 1 3 5 4 3 3 3 4 5 4 4 3 2 2 5 6 5 4 7 6 6 5 6 8 9 13 12 11 10 9 8 8 6 6 7 7 6 6 7 6 7 7 7 7 7 7 7 6 7 7 6 6 7
4 5 4 4 6 5 4 3 3 1 0 1 2 2 1 4 2 1 1 1 2 2 2 2 1 3 1 2 2 2 0 1 4 4 4 4 4 4 4 4 5 5 6 5 4 4 3 6 4 3 6 6 6 6 7 7 9 13 13 12 11 10 10 9 9 8 7 7 7 7 7 8 8 7 8 8 7 8 8 8 8 8 7 8 8
5 5 4 6 6 5 4 4 4 2 1 1 1 2 2 3 2 1 2 2 2 3 3 2 2 3 2 2 3 3 3 2 2 1 2 4 4 5 5 3 5 3 1 3 5 4 2 1 5 3 3 3 3 8 7 6 12 14 14 13 11 10 11 10 9 9 8 9 8 8 8 10 9 9 9 9 9 9 9 9 9 9 9 9 9
5 4 4 5 6 5 4 5 5 4 3 2 2 1 3 2 1 1 1 3 2 1 3 4 2 3 2 0 2 2 2 3 2 1 2 3 6 5 3 7 5 3 2 3 3 3 5 4 4 5 3 3 1 2 3 6 7 6 9 12 12 11 11 11 10 10 9 9 9 9 10 10 11 10 10 10 9 10 11 10 10 10 10 10 10
4 4 4 4 5 6 5 5 5 5 4 3 2 1 2 1 1 1 3 2 2 2 3 3 3 2 2 2 0 2 1 1 1 0 4 3 2 4 3 4 6 4 3 4 5 4 3 4 5 4 5 4 4 4 3 7 6 6 5 7 13 13 12 12 12 11 11 11 10 10 11 12 12 11 11 11 11 11 12 12 12 11 12 11 11
5 4 4 4 4 5 6 6 5 4 4 3 4 3 2 2 2 1 3 2 2 2 2 3 2 1 3 2 2 3 5 2 2 1 2 3 4 0 2 4 7 8 6 6 7 3 5 5 7 6 5 4 4 3 1 2 8 6 11 12 14 14 13 13 13 13 12 12 12 12 11 13 13 12 12 13 13 13 12 13 12 12 12 12 12
3 4 4 4 4 3 4 5 6 5 5 5 3 2 2 2 4 5 2 1 2 1 1 4 3 0 4 2 4 2 2 1 3 2 1 1 1 4 3 4 6 7 9 6 9 6 4 3 3 5 6 5 4 4 4 4 4 6 6 13 14 15 14 14 14 14 14 13 13 13 13 14 14 14 13 14 14 14 13 13 13 13 13 13 13
3 4 4 4 5 4 4 3 3 5 4 4 5 5 5 4 4 3 3 2 2 2 1 2 2 5 1 2 2 1 2 3 2 2 2 1 1 1 1 0 2 4 5 4 3 6 6 5 6 5 6 6 5 5 5 4 5 6 7 13 14 14 14 14 14 15 15 15 14 14 15 15 15 15 15 15 15 15 14 14 14 15 14 14 14
5 4 5 4 5 4 4 5 4 4 5 4 4 6 6 4 3 4 1 0 1 1 1 1 2 2 4 3 1 1 1 1 2 2 1 1 2 1 2 2 1 2 1 1 3 0 6 6 5 4 4 6 7 6 5 5 4 5 8 15 15 14 14 14 14 15 16 15 15 15 15 15 15 15 15 15 15 15 15 15 15 15 16 15 15
6 5 5 5 4 4 5 5 4 3 3 2 2 4 4 4 4 5 4 4 2 1 1 2 2 2 4 3 3 3 3 2 1 1 2 1 1 4 2 2 3 3 1 3 1 2 2 3 2 5 5 4 5 6 6 6 6 7 10 15 15 14 15 15 15 15 15 15 15 16 16 16 16 16 16 16 16 16 17 16 16 16 16 16 16
5 6 6 7 5 5 4 4 4 3 3 2 1 2 3 5 4 4 3 3 2 1 2 2 3 2 2 4 5 4 3 3 4 2 2 2 1 3 1 1 3 2 2 2 3 5 1 1 5 4 8 2 3 3 5 5 5 9 9 14 15 15 15 14 15 16 16 16 15 15 16 16 16 16 17 17 17 18 18 18 18 17 17 17 17
6 6 6 7 5 6 5 3 4 4 2 4 3 2 2 2 5 5 4 3 2 2 2 2 3 4 5 5 6 4 4 3 1 4 4 6 4 2 3 3 2 0 2 2 1 2 1 3 2 3 4 3 1 2 1 3 4 9 11 10 16 15 15 16 16 16 17 17 16 15 16 16 16 16 16 17 18 18 18 19 19 19 18 18 19
6 6 6 8 6 7 5 5 3 3 3 3 2 1 1 1 2 3 4 3 3 3 3 4 2 1 2 4 3 1 3 4 3 2 4 5 3 1 2 2 4 2 1 2 2 0 3 2 1 4 5 4 4 4 4 3 4 9 13 8 12 15 16 16 17 17 17 17 18 18 16 17 18 17 18 18 19 19 18 19 19 20 20 20 20
7 6 5 6 7 7 7 6 4 4 4 3 3 2 2 2 1 2 0 4 4 2 3 4 3 4 2 1 2 5 3 5 1 2 3 3 5 4 3 2 3 3 3 1 1 4 2 0 2 5 4 4 3 3 4 4 4 6 11 7 5 14 15 17 16 17 17 17 18 19 19 20 20 19 19 19 19 20 20 19 18 18 19 20 19
7 6 7 5 7 7 8 7 6 6 5 5 4 4 4 3 2 2 2 2 4 4 2 3 3 2 4 2 0 4 4 2 3 3 5 5 4 2 2 2 1 2 3 3 2 2 3 2 3 4 4 3 3 3 5 4 4 6 10 6 6 7 15 17 17 17 17 17 18 19 20 20 20 20 20 19 20 19 19 19 18 18 19 19 20
8 7 7 7 6 8 8 8 7 7 6 6 6 5 5 4 4 3 3 3 3 3 3 3 3 4 4 3 3 2 3 2 2 3 3 4 3 4 2 1 1 1 0 1 2 3 3 6 2 0 3 4 4 5 4 5 6 7 6 6 6 6 10 15 17 17 17 18 18 19 19 19 19 19 19 20 20 20 19 19 19 19 20 20 21
8 8 7 9 6 8 7 8 8 7 8 8 6 6 5 5 5 5 4 3 2 3 3 2 3 3 3 2 6 4 3 2 2 4 3 3 3 2 2 1 3 3 1 0 2 2 4 5 4 1 2 2 3 5 4 5 8 9 7 7 8 7 11 13 15 16 17 18 18 18 18 18 18 18 18 19 20 20 20 20 19 20 21 21 21
7 6 9 9 8 7 7 8 7 8 7 7 7 6 5 4 5 5 4 4 3 3 3 3 3 3 2 3 1 3 4 3 2 2 3 5 3 2 1 1 3 3 2 1 2 2 2 3 3 4 2 4 5 4 4 4 7 9 6 6 6 8 11 8 11 14 15 16 16 17 17 18 18 18 18 18 19 20 20 20 20 21 22 22 21
8 8 9 9 9 9 9 9 9 9 9 7 8 7 6 6 5 5 6 6 4 3 4 4 4 4 3 3 2 2 1 1 1 2 2 2 4 4 4 4 2 1 2 2 3 6 3 4 5 5 7 5 3 4 3 3 3 2 4 5 6 8 6 5 10 13 14 15 17 17 18 18 19 19 19 19 20 20 21 20 20 21 22 22 23
9 9 9 9 10 10 10 10 11 9 8 8 7 7 6 6 5 5 4 7 6 5 4 4 4 3 3 4 3 3 3 2 2 2 3 3 3 4 3 2 3 3 4 4 5 5 4 4 5 4 6 6 6 4 5 5 4 4 5 5 6 6 6 6 6 10 12 14 16 17 17 18 18 18 19 20 20 21 21 21 21 21 22 23 22
10 11 10 10 10 11 11 10 9 10 9 9 9 7 8 7 7 6 5 5 7 6 5 5 5 4 3 4 3 3 3 4 3 4 4 3 4 5 6 5 5 5 5 4 5 5 6 3 4 5 5 4 6 4 5 4 3 3 4 4 4 4 4 4 5 6 13 15 16 16 17 17 17 18 19 20 21 21 22 21 21 21 21 22 21
10 11 11 11 10 11 10 9 9 8 10 9 9 8 8 9 8 8 7 6 6 7 7 6 6 5 4 3 4 4 4 4 5 5 4 4 3 3 3 5 7 6 6 6 5 6 6 5 4 5 4 4 3 4 4 5 5 5 6 6 6 4 3 5 6 6 9 10 12 14 16 17 17 17 17 18 20 21 21 21 21 20 20 21 21
12 11 11 12 11 10 11 10 10 9 9 10 10 9 9 9 9 8 7 8 7 7 7 7 7 6 6 5 6 6 5 5 5 5 5 5 4 4 4 4 2 2 2 2 4 5 4 5 4 5 4 5 4 4 4 5 6 6 5 5 5 6 6 5 6 7 8 14 15 15 15 15 14 14 16 17 19 20 20 21 20 20 20 20 20
13 12 10 11 10 11 12 11 11 11 9 11 11 11 10 9 10 9 8 7 7 8 8 7 7 7 6 7 7 7 5 5 5 5 5 5 5 5 4 3 4 4 4 3 4 3 4 6 6 4 5 4 4 4 5 7 6 5 4 5 5 4 4 6 7 7 12 15 16 18 16 13 13 14 16 18 19 19 20 20 20 20 20 19 19
12 13 12 12 11 12 11 11 11 11 10 10 11 11 11 10 10 9 8 8 7 7 8 8 8 7 7 7 7 7 7 7 6 5 5 6 5 6 5 4 4 3 4 5 4 4 5 6 5 6 5 6 5 5 4 5 6 6 5 4 4 5 6 6 7 7 6 6 6 5 6 8 10 15 17 17 18 18 19 19 20 20 19 19 19
14 15 15 13 11 12 12 12 11 10 11 11 10 10 10 10 10 10 9 9 8 8 8 9 9 9 9 9 8 8 7 7 7 6 5 6 6 5 5 6 5 4 4 4 4 4 5 6 6 6 7 6 7 7 4 4 4 5 7 6 6 6 6 6 6 5 5 6 7 9 9 10 13 13 13 14 15 16 18 18 18 19 19 19 19
16 15 16 15 12 12 12 12 11 10 11 10 10 10 10 9 10 10 10 9 10 9 9 9 9 10 10 10 10 9 9 7 7 6 6 6 5 6 5 4 4 5 5 4 5 5 5 5 6 6 5 5 4 4 5 6 6 6 6 6 7 4 5 4 4 4 4 5 4 5 8 9 8 10 12 12 13 15 15 15 16 18 18 18 18
14 14 14 15 13 13 12 12 12 11 11 11 10 10 10 10 9 10 11 10 10 9 9 10 10 10 10 11 11 11 9 12 12 10 9 7 5 5 5 4 5 5 5 5 5 5 5 5 6 5 6 7 6 6 6 6 7 7 4 4 5 5 3 3 3 4 6 5 3 4 7 7 9 8 8 8 7 8 10 12 12 15 15 14 14
12 11 11 13 15 14 13 13 12 11 10 10 12 17 14 11 10 10 10 10 10 9 9 10 10 10 11 11 11 15 16 16 16 16 15 13 10 6 4 4 6 5 5 5 5 5 5 6 6 5 7 7 6 5 4 4 3 4 5 3 4 5 6 6 5 3 3 2 3 5 6 7 8 9 8 8 8 8 7 7 8 11 12 14 13
12 11 11 12 15 14 14 14 14 12 11 11 17 16 17 17 12 10 9 10 10 9 9 9 9 10 9 10 9 9 8 12 15 18 17 16 15 14 12 9 5 3 5 6 7 6 6 6 6 6 7 8 8 6 5 4 3 3 2 3 5 6 6 7 8 4 0 3 4 6 7 7 7 8 8 8 8 8 7 8 12 13 14 15 14
12 10 11 11 11 13 13 14 15 13 12 14 18 18 18 18 15 11 9 9 10 10 9 9 9 9 9 9 8 8 6 5 7 11 13 16 16 16 15 14 13 10 7 6 6 5 5 6 6 7 6 7 6 5 7 6 3 3 3 3 4 6 6 6 6 7 3 5 8 9 8 6 6 7 7 8 8 7 7 9 12 12 14 15 15
12 11 11 11 11 10 12 13 14 14 12 14 18 20 19 19 18 13 10 9 9 10 10 10 9 8 8 8 7 6 7 12 9 8 9 10 13 16 16 15 14 14 14 13 11 9 6 7 8 8 7 5 5 5 3 3 3 5 4 5 4 4 5 7 6 6 7 8 9 9 8 5 5 7 7 7 6 4 6 7 13 17 16 11 11
12 12 11 11 10 10 10 12 12 12 13 13 19 20 20 20 19 15 9 10 9 9 9 10 9 9 8 8 8 7 6 5 6 8 8 9 9 9 9 7 8 12 13 15 16 15 11 10 10 11 10 5 7 6 5 4 5 7 6 6 4 5 5 6 6 8 8 7 8 8 8 6 4 5 6 6 4 5 5 10 17 14 10 13 16
12 12 12 11 10 10 10 9 10 12 13 16 19 20 20 20 19 14 10 9 8 8 8 8 9 9 9 9 8 8 7 7 5 7 7 8 7 8 9 10 10 10 9 10 10 9 10 9 10 13 12 10 10 10 7 6 6 7 7 7 5 4 4 5 6 7 8 9 8 3 5 6 4 3 3 6 6 6 6 10 12 10 13 16 15
11 10 10 10 11 11 11 11 11 12 11 17 20 21 21 20 20 10 11 10 8 6 6 8 8 8 9 9 8 9 8 7 10 12 10 7 7 8 8 8 9 9 10 12 14 14 12 11 12 13 12 14 14 10 8 6 5 5 3 2 3 4 6 8 7 6 6 2 4 6 6 4 3 5 3 4 6 8 7 5 6 11 14 14 13
11 12 12 13 9 11 12 11 12 9 9 14 20 22 21 22 14 9 13 10 10 10 7 4 4 6 8 8 8 8 9 8 10 13 14 11 7 9 9 9 9 9 9 9 15 20 19 19 17 17 18 18 15 14 11 5 4 2 2 3 6 5 6 7 7 5 4 4 3 4 4 6 4 6 7 3 4 8 5 4 5 11 13 12 16
14 14 13 12 10 11 13 13 13 10 9 11 19 20 22 21 18 11 11 11 10 10 9 8 6 5 6 11 10 8 9 9 12 13 14 11 9 10 9 9 9 9 8 8 7 8 18 19 19 16 13 12 12 9 7 8 7 4 3 7 7 4 6 6 7 5 5 5 1 4 3 4 6 5 8 7 3 2 4 4 7 6 9 12 12
12 10 11 11 11 10 13 14 15 13 12 10 18 19 20 20 17 12 11 10 10 9 9 9 8 8 7 9 12 12 10 10 12 13 14 12 10 10 9 8 9 10 9 7 7 7 2 4 7 7 7 10 9 7 9 12 13 9 8 8 6 5 7 6 5 5 5 2 2 3 3 3 6 4 6 8 9 4 1 4 6 8 9 7 8
Wind_Direction
64 323 126 117 97 81 51 67 117 151 114 109 109 109 121 156 209 212 285 272 30 43 350 315 254 115 118 119 135 128 133 136 130 133 130 138 152 159 159 159 156 155 154 152 152 149 149 147 147 146 145 142 140 141 141 141 142 141 141 138 131 119 107 96 85 73 70 69 43 39 16 19 11 2 360 2 359 356 360 4 3 1 1 5 8
141 190 114 103 120 120 123 106 353 13 95 100 88 154 167 167 204 200 174 177 189 112 242 29 10 67 106 94 114 162 145 148 146 142 138 150 146 161 166 165 163 162 160 158 156 156 154 154 154 153 150 151 148 149 148 148 145 147 141 135 133 125 111 95 79 78 56 55 48 354 9 349 352 352 353 353 356 357 354 359 359 358 4 10 13
77 122 123 126 142 155 125 135 130 188 174 192 186 193 190 168 186 171 138 181 139 256 240 149 90 312 87 156 137 136 139 161 165 156 157 144 147 155 171 170 169 168 165 164 163 163 163 162 164 164 163 162 164 162 161 161 163 161 163 156 162 167 136 151 145 332 323 175 334 327 328 331 337 340 344 349 353 356 354 357 0 6 13 20 21
161 144 110 109 52 26 7 83 94 247 189 232 186 138 147 229 238 149 112 40 60 125 253 159 182 192 177 162 215 153 150 163 172 160 153 146 150 157 163 173 174 172 172 169 170 170 172 173 171 171 176 175 174 175 170 172 177 180 177 194 192 196 185 223 243 263 292 323 300 311 306 316 325 331 337 337 345 352 354 358 7 13 23 23 24
80 110 140 147 160 150 149 116 72 325 327 274 246 134 176 231 225 120 83 18 22 225 245 201 192 195 218 170 216 150 141 156 149 136 162 153 156 157 168 169 175 176 174 177 179 177 178 179 179 181 182 183 193 185 187 185 190 195 199 209 218 225 241 236 238 239 238 248 269 285 306 320 325 323 326 328 335 344 352 355 5 17 27 24 25
48 77 94 116 131 142 133 141 135 159 189 231 294 316 39 274 224 170 156 167 203 196 228 187 219 201 209 114 151 147 175 139 156 162 174 160 160 164 163 168 165 172 179 183 185 186 184 184 186 187 189 194 200 199 203 204 215 205 218 230 240 260 260 263 256 268 282 296 298 299 302 300 303 313 320 322 335 338 342 349 1 10 21 24 42
134 85 94 142 141 128 127 125 145 163 155 188 170 171 215 190 212 143 170 211 214 226 201 191 215 153 159 217 153 173 160 202 165 151 138 158 159 164 164 166 170 173 173 174 191 192 191 187 192 194 198 204 205 202 203 208 208 213 223 227 232 238 247 249 255 259 264 265 266 273 281 292 301 305 310 319 324 335 338 341 351 349 17 24 48
150 160 145 149 119 117 112 155 146 157 136 133 120 156 154 187 156 151 170 157 219 201 204 206 186 156 207 226 131 190 243 163 156 176 155 142 166 168 163 171 170 171 169 173 175 192 196 194 195 199 202 206 208 209 211 212 213 215 222 221 224 234 243 250 253 257 255 256 262 265 275 287 291 298 307 312 318 330 323 330 332 358 356 32 27
134 143 143 128 120 118 137 132 86 106 141 116 143 166 173 152 176 180 144 153 194 209 201 194 172 163 101 157 135 160 34 106 212 130 105 193 161 160 167 171 172 174 174 171 169 173 194 199 199 202 204 208 211 213 214 214 216 219 219 225 231 234 236 243 247 258 260 260 262 271 272 277 287 295 301 310 323 320 304 321 320 340 14 10 357
146 120 96 120 108 115 128 142 115 128 136 122 190 153 110 103 83 294 259 169 195 177 189 183 159 146 170 154 155 195 169 169 182 89 157 161 156 144 148 152 169 170 183 178 164 158 176 195 202 204 205 209 212 215 218 219 224 224 225 226 233 236 238 240 239 240 250 257 261 266 277 283 291 288 281 296 292 299 312 300 297 251 195 331 272
124 129 125 125 137 147 137 127 155 145 149 173 133 108 88 90 103 12 282 242 155 158 153 130 184 162 135 150 162 129 186 169 135 108 348 195 147 148 161 161 169 165 173 180 152 157 164 179 192 195 206 210 210 211 214 220 220 227 228 226 227 227 233 240 244 242 241 247 253 263 275 278 276 288 303 273 260 245 264 288 250 201 234 234 186
156 135 139 142 145 123 115 126 159 173 145 142 134 127 135 136 130 143 263 286 281 114 100 112 116 62 91 114 185 143 98 145 188 162 181 205 157 59 144 159 159 162 157 151 170 166 165 170 184 194 196 199 206 206 210 213 217 221 223 224 224 227 236 239 240 241 246 248 253 256 257 257 257 254 247 257 248 235 238 247 232 228 248 231 203
155 137 130 132 119 110 110 100 85 32 360 72 61 90 111 118 121 179 279 231 150 130 69 66 63 128 255 124 154 178 138 132 131 234 134 163 144 154 209 143 133 181 143 157 157 165 161 172 190 196 185 164 198 208 208 207 212 218 220 222 226 228 230 231 235 232 235 243 244 245 245 245 232 243 250 245 243 243 248 234 233 238 243 212 208
152 128 131 128 130 130 132 129 102 53 320 57 90 87 81 98 107 192 269 6 110 86 97 104 268 141 139 158 95 229 195 101 89 252 151 145 140 153 156 161 157 157 136 154 162 181 171 163 188 190 150 170 179 189 200 207 211 213 214 217 219 221 220 226 236 238 236 238 236 234 237 219 220 248 245 240 236 240 233 232 234 229 227 220 211
155 145 151 132 138 139 145 134 114 118 254 106 18 96 82 106 108 128 4 290 74 102 122 304 118 78 28 121 149 177 314 171 205 164 142 166 154 160 141 169 139 147 159 169 183 189 185 154 189 167 154 173 177 181 191 197 203 207 212 215 217 215 215 220 222 224 230 233 233 234 220 213 230 235 242 244 243 241 234 233 233 231 235 228 219
168 162 171 147 138 148 142 141 141 167 174 164 211 133 110 87 160 150 328 245 162 140 130 78 350 120 126 248 183 163 160 197 183 207 150 147 166 153 174 140 131 128 205 181 167 153 128 182 146 135 150 209 163 177 195 187 199 197 203 207 211 216 219 220 225 231 230 228 233 233 228 226 228 237 242 242 238 240 241 235 232 232 229 229 226
162 172 166 149 145 146 150 155 147 166 163 180 226 156 124 143 71 68 273 277 120 112 131 120 67 358 111 17 36 23 34 60 112 323 186 165 159 161 136 161 144 136 210 109 123 178 175 167 140 150 192 151 205 217 211 155 168 184 198 203 205 209 214 216 220 225 232 239 230 226 222 222 228 236 242 243 239 237 235 233 232 231 229 230 229
158 175 162 156 152 153 151 152 165 176 166 188 172 139 156 143 148 119 270 273 48 163 109 92 104 176 258 116 176 134 172 274 329 287 312 345 118 136 178 146 147 151 194 156 195 173 157 148 155 173 168 192 199 178 218 150 164 177 172 197 204 206 211 213 214 220 226 230 238 240 229 216 221 228 234 236 235 235 233 232 232 231 231 232 231
180 178 171 152 166 158 158 162 170 171 176 172 185 175 163 154 153 169 247 295 4 55 96 104 87 254 214 138 100 98 139 111 49 4 345 332 327 263 167 141 164 167 187 198 169 190 189 161 171 177 174 190 167 201 174 194 167 164 181 189 195 201 209 211 215 222 224 228 230 236 233 213 219 226 228 231 234 236 236 236 235 234 232 233 233
185 162 181 156 166 169 175 170 169 178 177 183 185 172 184 168 163 198 223 308 302 94 135 139 177 181 36 349 96 68 298 128 136 169 171 127 302 286 190 155 192 169 184 195 160 178 158 149 160 159 162 177 173 175 204 202 160 160 163 175 189 199 208 212 216 220 226 228 229 230 232 223 224 225 225 230 234 236 239 239 237 234 235 236 235
199 170 182 168 167 170 180 183 188 171 192 196 185 174 186 192 152 142 151 174 261 85 57 20 321 119 143 42 326 203 196 117 137 239 53 24 223 166 58 295 17 40 28 340 113 145 157 182 179 194 151 171 178 183 198 204 180 173 177 182 189 198 203 209 214 220 224 228 231 230 233 232 231 236 237 235 235 237 241 242 241 238 236 236 237
184 189 170 189 168 177 179 185 202 192 187 206 188 158 180 145 168 107 117 15 312 137 164 133 327 74 121 106 338 15 356 331 191 111 80 285 249 272 160 55 40 328 233 232 68 307 160 183 186 152 153 170 177 186 190 206 190 181 186 188 192 197 203 208 213 219 224 227 231 233 234 236 239 240 242 243 239 237 240 242 242 240 238 237 236
182 185 186 184 188 178 194 185 201 193 182 258 194 164 165 162 152 155 164 152 264 175 261 118 103 348 124 172 194 202 187 193 207 118 156 178 333 286 123 156 149 158 347 77 315 277 176 164 269 155 179 197 186 179 191 195 196 199 187 186 194 200 204 209 214 218 223 226 229 233 236 238 239 240 242 243 243 241 239 238 238 239 238 237 236
185 173 193 192 180 184 204 186 181 203 172 242 225 222 187 155 139 137 170 138 189 159 229 211 154 200 219 175 218 228 151 232 175 157 160 111 305 302 6 51 333 142 193 167 197 233 191 178 193 153 177 155 162 178 182 188 192 184 174 188 196 201 206 209 212 219 223 225 228 231 235 237 239 240 241 242 242 242 241 239 237 237 237 237 236
186 182 186 194 170 176 193 201 173 202 185 174 224 262 30 89 137 156 155 162 176 188 202 237 213 179 230 177 201 225 170 226 118 178 159 171 189 216 12 8 275 79 25 96 319 308 208 205 181 137 130 133 167 151 208 197 202 183 188 192 196 202 208 214 217 220 222 225 227 229 232 235 237 239 240 240 241 241 241 240 238 237 237 238 237
192 191 186 189 177 173 180 192 200 186 176 181 182 198 105 2 148 161 166 160 176 192 204 241 229 177 321 322 315 255 187 177 177 205 172 178 206 121 68 359 316 20 237 135 202 329 257 186 209 129 146 176 187 181 201 216 254 192 198 194 200 206 212 216 220 221 224 226 228 231 231 232 234 234 235 236 238 239 239 239 239 239 239 238 238
198 188 197 179 176 168 174 186 196 185 171 173 197 169 170 169 335 136 21 155 187 198 193 236 218 191 215 180 295 290 42 336 346 219 351 51 62 65 80 41 339 338 352 327 210 204 267 269 196 142 164 182 167 185 189 206 249 193 204 219 197 212 218 221 223 225 226 228 230 232 233 235 235 233 233 234 235 237 239 238 238 239 240 241 241
190 187 191 198 174 172 171 183 184 186 175 184 189 184 183 182 178 175 204 208 169 187 230 245 249 223 204 178 55 307 313 273 328 8 53 60 60 84 129 151 100 339 347 324 317 298 258 218 233 150 176 160 188 193 221 220 234 191 202 212 229 214 217 223 226 229 229 230 232 234 235 236 238 239 240 238 238 238 239 240 240 240 241 241 242
179 190 184 197 176 175 173 185 185 183 182 184 189 193 177 180 182 194 198 224 179 187 193 224 260 234 188 196 186 228 280 346 343 317 88 76 55 51 40 113 115 108 299 306 299 302 333 331 334 246 134 175 184 221 222 211 220 209 199 215 219 232 215 219 227 231 232 233 235 237 238 241 243 244 247 248 249 248 245 244 242 242 242 242 242
188 189 186 183 188 177 174 183 185 187 185 186 188 198 182 182 186 187 196 216 214 175 195 235 230 257 289 203 174 205 211 238 232 251 139 143 151 174 177 172 143 166 186 294 292 301 302 315 315 27 287 228 208 229 232 236 235 213 209 210 224 229 235 222 226 231 234 236 237 240 242 244 246 247 248 250 252 252 252 250 248 246 246 245 245
192 182 178 179 186 183 181 184 183 186 188 186 183 190 188 190 194 183 194 195 208 200 190 197 241 252 239 278 180 198 194 222 251 247 152 148 148 173 240 130 154 180 209 236 285 284 291 296 323 323 294 233 247 248 241 210 226 223 224 229 234 241 250 251 234 235 240 244 244 245 246 246 246 247 248 249 250 251 250 250 249 249 249 249 248
194 189 178 181 183 190 191 192 191 189 189 194 182 185 188 191 201 200 186 183 191 214 217 201 223 211 221 228 241 281 307 40 307 297 321 167 166 169 192 199 206 216 199 235 239 273 305 300 299 304 290 287 278 294 299 316 311 224 226 238 242 247 250 253 255 241 240 242 244 243 243 244 245 246 248 249 250 251 251 251 250 250 251 252 251
190 192 182 181 182 190 194 195 195 188 188 190 184 180 188 188 208 207 201 177 189 194 206 244 236 219 197 205 216 215 230 240 213 243 249 233 183 173 181 205 207 199 199 209 241 262 263 249 268 279 292 293 283 273 282 275 266 252 227 233 246 253 257 259 263 258 245 243 247 246 245 245 246 247 248 250 251 253 253 252 251 250 251 251 251
190 192 187 183 187 187 195 193 197 186 185 181 186 183 183 192 200 202 219 188 181 194 197 208 229 249 215 191 216 230 211 223 238 231 236 247 212 194 183 195 203 219 202 216 226 243 262 269 268 267 274 280 287 277 278 294 295 306 290 281 269 259 252 251 250 250 245 239 242 246 248 249 249 249 249 250 252 254 255 255 254 253 254 254 254
191 192 186 191 188 186 194 192 195 191 180 182 186 188 185 191 194 204 200 205 191 192 198 204 209 214 235 227 212 211 221 221 218 235 249 249 267 267 222 189 199 207 206 202 214 238 255 257 252 274 269 267 264 302 310 301 292 284 282 280 279 277 265 256 262 273 279 273 244 241 244 245 246 248 249 251 253 256 257 257 257 256 256 256 255
191 190 186 191 188 185 191 192 191 197 181 182 188 191 188 188 195 205 204 191 199 202 202 204 209 205 212 222 228 219 216 222 218 214 220 240 252 251 271 284 285 258 227 209 208 227 243 265 252 254 264 278 280 279 285 279 278 276 268 271 266 270 274 272 272 275 256 247 249 241 240 244 249 252 253 254 256 257 257 258 258 257 256 255 256
190 189 187 188 188 187 190 193 189 195 192 185 187 193 191 190 195 200 206 199 195 199 205 209 209 209 211 215 216 223 228 223 219 217 220 233 229 233 235 227 227 229 235 237 255 256 260 265 273 259 261 261 266 270 259 268 265 255 250 247 257 263 263 264 269 272 276 266 251 253 257 257 253 252 252 253 254 255 256 258 259 259 258 257 257
189 189 189 188 190 189 192 193 194 190 193 190 188 194 196 193 191 199 199 206 206 201 205 208 214 214 216 215 221 219 218 220 227 223 221 224 227 230 229 229 224 216 216 224 226 234 249 260 265 279 271 273 271 245 241 247 266 272 261 254 260 261 256 258 255 257 263 281 299 287 256 238 240 245 250 253 256 257 260 262 263 263 262 262 261
195 192 192 192 191 190 190 194 197 191 191 193 190 194 201 197 192 194 201 201 205 206 209 213 214 214 217 219 219 218 220 218 221 225 220 218 225 236 223 219 220 230 239 241 227 231 239 251 256 255 268 260 252 267 244 239 255 261 271 271 267 253 246 243 255 247 266 282 285 287 281 276 275 276 275 272 264 263 265 265 267 268 268 266 263
200 195 191 192 191 191 190 194 196 193 191 193 193 195 200 201 191 192 201 201 204 208 211 214 217 218 212 218 222 217 217 218 219 221 223 220 209 221 226 225 218 218 229 230 230 233 235 242 248 261 261 276 279 281 281 273 264 263 250 253 264 270 269 264 262 282 281 271 269 272 284 287 287 281 272 265 271 274 271 270 270 268 266 260 258
200 200 193 190 191 192 190 193 196 194 192 196 196 194 197 202 200 195 197 204 206 206 211 216 216 220 222 219 216 220 207 208 212 217 224 226 224 219 215 215 223 220 223 223 232 234 240 248 265 268 272 270 264 264 266 259 253 253 253 258 272 276 284 295 291 288 279 273 269 305 310 311 306 299 300 307 303 297 294 289 287 284 278 268 255
197 199 195 185 190 191 189 189 195 196 194 196 197 194 192 197 203 203 195 202 208 210 206 212 218 216 223 230 230 216 209 201 204 208 214 223 226 231 227 209 215 222 224 234 234 231 234 241 246 250 260 264 262 253 255 252 266 277 280 295 314 318 316 301 289 277 287 335 331 305 292 296 299 298 299 300 301 295 289 290 288 283 289 299 301
196 197 198 189 187 192 193 192 194 199 199 198 192 189 191 197 200 205 201 197 203 209 210 206 214 221 220 220 235 247 225 206 203 204 208 213 219 224 232 238 236 213 227 229 232 231 233 236 234 235 245 258 262 261 257 273 266 278 311 336 318 314 305 314 309 305 86 31 304 296 292 290 292 290 293 290 291 289 287 281 282 299 317 325 333
193 197 200 199 192 186 191 194 196 199 201 195 183 186 190 195 199 203 207 203 199 206 212 212 212 217 226 227 219 224 233 211 191 207 212 213 215 221 226 232 235 237 228 220 239 251 244 249 243 238 246 253 274 289 287 286 297 326 316 317 299 294 301 304 302 296 309 347 309 299 289 283 274 279 289 284 279 277 279 292 310 336 337 347 351
184 197 200 201 201 194 186 189 196 199 204 191 180 184 189 193 199 202 208 209 207 205 208 213 216 213 218 229 241 230 220 215 213 198 202 214 221 222 225 229 236 236 238 238 232 234 252 258 261 261 248 264 270 266 281 296 316 293 292 285 277 287 301 294 288 303 307 300 297 290 284 283 282 279 273 275 278 292 315 330 350 338 344 355 339
184 193 200 201 203 203 196 186 191 198 207 179 181 184 189 193 197 201 210 209 212 212 206 208 214 216 214 216 223 233 240 222 207 205 194 206 207 214 218 225 232 240 242 244 246 244 236 240 247 252 250 238 248 252 264 276 279 274 279 275 282 285 280 282 301 293 288 281 275 287 290 277 254 280 285 292 319 331 334 342 333 326 341 341 343
184 189 197 202 202 204 205 195 189 198 210 175 179 183 189 192 197 197 210 218 217 215 216 209 207 211 215 216 217 222 226 234 221 205 204 200 197 208 215 225 228 235 234 234 227 223 231 221 230 239 245 241 244 248 255 261 262 265 262 266 276 282 292 293 284 280 286 272 258 247 283 303 282 275 300 322 335 331 328 319 309 341 351 339 338
190 185 193 203 201 202 204 207 205 200 204 169 179 182 187 192 191 191 207 217 228 235 222 216 210 206 209 213 215 220 223 222 222 214 208 203 209 209 210 217 227 230 232 229 226 222 224 222 226 230 232 231 231 233 234 244 256 254 254 285 314 317 308 298 292 290 276 317 350 308 287 299 319 330 321 332 330 317 312 301 334 345 334 332 338
190 190 194 202 202 201 203 205 214 210 205 177 179 183 185 189 179 190 203 210 222 232 250 249 229 211 210 210 211 216 219 224 220 209 213 204 213 218 222 227 230 236 235 229 218 221 219 222 224 224 226 227 224 226 227 241 251 349 19 315 270 271 275 279 282 290 298 327 315 355 322 311 342 344 325 339 335 302 308 333 342 328 326 345 339
197 196 196 199 201 204 204 206 208 210 215 176 183 184 186 180 179 185 199 205 216 222 236 244 252 251 232 220 218 220 221 222 216 206 206 200 216 221 224 231 237 243 247 255 268 227 224 224 225 230 241 243 244 251 250 251 225 181 196 240 253 251 260 267 276 290 307 294 53 328 346 318 346 350 332 322 291 218 320 333 330 329 349 343 343
201 193 191 196 201 204 207 208 204 204 217 183 184 181 184 180 184 193 192 202 208 214 219 231 234 239 244 238 229 225 225 226 218 204 201 196 216 219 225 233 242 248 251 262 252 260 198 212 244 243 244 240 238 233 241 240 237 210 213 231 237 233 250 253 269 284 284 266 60 348 21 326 360 351 348 334 331 311 122 341 333 352 341 342 347